Retour au catalogue

STARLINK-6321

ActifCommunicationsVLEO
NORAD 57340·PAYLOAD·🇺🇸 United States

Lancé Jul 16, 2023 depuis Cape Canaveral Space Force Station

Loading…

Prochains Passages (prochaines 24 heures)

TLE

FraisSource: CelesTrak SupGP

Époque: Sep 14, 2026, 20:59 UTC

1 57340C 23099N   26257.87479167  .00023202  00000+0  84030-3 0  2576
2 57340  43.0015 264.3834 0000746 334.4723  76.7935 15.27570785    12

Suivez STARLINK-6321 en temps réel avec AllMySat

Download on the App Store